FW7023 Weather Reports


Display with metric or nautical units.
time (UTC)temp
F
wind
direction
speed
MPH
gust
MPH
rain 1hr
in
rain 24hr
in
rain mn
in
humidity
%
barometer
mb
20260509184016 84 209 2.0 3.0 0.00 0.00 0.00 34 1007.8
20260509183511 84 165 0.0 0.0 0.00 0.00 0.00 35 1008.0
20260509183007 83 181 0.0 1.0 0.00 0.00 0.00 36 1007.8
20260509182504 83 222 2.0 2.0 0.00 0.00 0.00 33 1008.0
20260509182001 83 168 1.0 1.0 0.00 0.00 0.00 34 1008.1
20260509181459 82 340 0.0 1.0 0.00 0.00 0.00 36 1008.3
20260509180956 82 204 3.0 6.0 0.00 0.00 0.00 34 1008.2
20260509180451 82 202 3.0 5.0 0.00 0.00 0.00 38 1008.3
20260509175949 82 244 0.0 1.0 0.00 0.00 0.00 37 1008.3
20260509175445 80 210 0.0 1.0 0.00 0.00 0.00 39 1008.5
20260509174941 81 283 3.0 5.0 0.00 0.00 0.00 37 1008.3
20260509174437 82 176 0.0 0.0 0.00 0.00 0.00 40 1008.6
20260509173933 81 26 1.0 2.0 0.00 0.00 0.00 37 1008.6
20260509173427 80 161 0.0 0.0 0.00 0.00 0.00 38 1008.6
20260509172924 80 136 1.0 2.0 0.00 0.00 0.00 38 1008.5
20260509172421 81 224 1.0 1.0 0.00 0.00 0.00 37 1008.6
20260509171916 80 168 1.0 2.0 0.00 0.00 0.00 38 1008.9
20260509171413 81 160 1.0 3.0 0.00 0.00 0.00 37 1008.9
20260509170909 80 166 0.0 1.0 0.00 0.00 0.00 39 1008.8
20260509170405 79 193 1.0 2.0 0.00 0.00 0.00 40 1008.8
20260509165901 80 230 3.0 5.0 0.00 0.00 0.00 38 1009.1
20260509165355 80 199 2.0 3.0 0.00 0.00 0.00 40 1009.0
20260509164851 79 135 0.0 0.0 0.00 0.00 0.00 38 1008.9
20260509164347 79 159 1.0 2.0 0.00 0.00 0.00 41 1008.9
20260509163843 78 165 0.0 1.0 0.00 0.00 0.00 39 1008.8
20260509163340 78 262 3.0 3.0 0.00 0.00 0.00 39 1009.0
20260509162839 78 153 0.0 0.0 0.00 0.00 0.00 40 1009.1
20260509162338 77 151 0.0 1.0 0.00 0.00 0.00 42 1009.0
20260509161834 77 129 0.0 0.0 0.00 0.00 0.00 43 1009.0
20260509161331 77 227 2.0 3.0 0.00 0.00 0.00 40 1008.8
20260509160826 77 180 2.0 3.0 0.00 0.00 0.00 43 1009.2
20260509160322 76 162 1.0 2.0 0.00 0.00 0.00 43 1008.9
20260509155818 77 200 1.0 3.0 0.00 0.00 0.00 44 1008.9
20260509155315 76 156 0.0 0.0 0.00 0.00 0.00 45 1009.0
20260509154811 75 171 1.0 2.0 0.00 0.00 0.00 43 1008.7
20260509154308 75 1 2.0 2.0 0.00 0.00 0.00 44 1009.0
20260509153805 74 132 1.0 1.0 0.00 0.00 0.00 44 1008.9
20260509153301 75 173 1.0 2.0 0.00 0.00 0.00 45 1009.0
20260509152758 74 161 1.0 1.0 0.00 0.00 0.00 46 1009.0
20260509152254 74 192 1.0 2.0 0.00 0.00 0.00 48 1008.9
20260509151751 74 346 1.0 2.0 0.00 0.00 0.00 46 1008.7
20260509151247 73 157 0.0 0.0 0.00 0.00 0.00 50 1009.0
20260509150746 73 153 1.0 2.0 0.00 0.00 0.00 47 1008.8
20260509150244 73 164 0.0 0.0 0.00 0.00 0.00 50 1008.7
20260509145740 72 151 0.0 0.0 0.00 0.00 0.00 52 1008.7
20260509145239 71 159 0.0 0.0 0.00 0.00 0.00 52 1008.8
20260509144737 71 174 1.0 2.0 0.00 0.00 0.00 55 1008.9
20260509144233 70 80 1.0 2.0 0.00 0.00 0.00 56 1008.9
20260509143731 69 145 1.0 1.0 0.00 0.00 0.00 59 1008.6
20260509143228 68 298 1.0 1.0 0.00 0.00 0.00 61 1008.9
20260509142724 68 174 0.0 0.0 0.00 0.00 0.00 63 1009.0
20260509142221 66 140 1.0 1.0 0.00 0.00 0.00 67 1008.9
20260509141716 65 169 1.0 1.0 0.00 0.00 0.00 69 1008.7
20260509141214 65 304 1.0 3.0 0.00 0.00 0.00 70 1008.9
20260509140710 64 196 2.0 2.0 0.00 0.00 0.00 71 1009.0
20260509140208 63 174 1.0 1.0 0.00 0.00 0.00 73 1008.8
20260509135705 63 151 2.0 2.0 0.00 0.00 0.00 75 1009.0
20260509135203 62 182 1.0 1.0 0.00 0.00 0.00 76 1008.8
20260509134659 62 157 1.0 2.0 0.00 0.00 0.00 77 1008.9
20260509134157 61 269 1.0 1.0 0.00 0.00 0.00 78 1009.0
20260509133653 60 171 1.0 1.0 0.00 0.00 0.00 80 1009.1
20260509133151 60 164 0.0 0.0 0.00 0.00 0.00 83 1008.8
20260509132649 59 164 0.0 0.0 0.00 0.00 0.00 87 1009.0
20260509132147 58 205 4.0 5.0 0.00 0.00 0.00 93 1008.7
20260509131643 57 163 0.0 0.0 0.00 0.00 0.00 96 1009.0
20260509131140 57 147 0.0 0.0 0.00 0.00 0.00 97 1008.7
20260509130636 56 220 0.0 0.0 0.00 0.00 0.00 98 1008.7
20260509130132 56 142 0.0 1.0 0.00 0.00 0.00 98 1008.6
20260509125629 55 164 0.0 0.0 0.00 0.00 0.00 99 1008.5
20260509125126 55 122 1.0 1.0 0.00 0.00 0.00 99 1008.5
20260509124622 54 126 0.0 1.0 0.00 0.00 0.00 99 1008.3
20260509124119 54 139 0.0 0.0 0.00 0.00 0.00 99 1008.3
20260509123617 53 131 0.0 0.0 0.00 0.00 0.00 99 1008.5
20260509123114 52 152 0.0 0.0 0.00 0.00 0.00 99 1008.3
20260509122610 51 145 0.0 0.0 0.00 0.00 0.00 99 1008.4
20260509122107 51 144 0.0 0.0 0.00 0.00 0.00 99 1008.6
20260509121604 51 146 0.0 0.0 0.00 0.00 0.00 99 1008.3
20260509121101 50 146 0.0 0.0 0.00 0.00 0.00 98 1008.2
20260509120559 50 146 0.0 0.0 0.00 0.00 0.00 98 1008.3
20260509120057 50 145 0.0 0.0 0.00 0.00 0.00 98 1008.2
20260509115554 51 146 0.0 0.0 0.00 0.00 0.00 98 1008.1
20260509115052 51 146 0.0 0.0 0.00 0.00 0.00 98 1008.1
20260509114550 51 155 0.0 0.0 0.00 0.00 0.00 99 1007.9
20260509114048 50 133 0.0 0.0 0.00 0.00 0.00 99 1008.0
20260509113546 50 133 0.0 0.0 0.00 0.00 0.00 98 1007.6
20260509113044 50 132 0.0 0.0 0.00 0.00 0.00 99 1007.8
20260509112540 49 132 0.0 0.0 0.00 0.00 0.00 98 1007.6
20260509112037 49 132 0.0 0.0 0.00 0.00 0.00 98 1007.6
20260509111534 49 132 0.0 0.0 0.00 0.00 0.00 98 1007.5
20260509111031 49 132 0.0 0.0 0.00 0.00 0.00 98 1007.5
20260509110528 49 132 0.0 0.0 0.00 0.00 0.00 98 1007.3
20260509110025 49 132 0.0 0.0 0.00 0.00 0.00 98 1007.5
20260509105523 49 132 0.0 0.0 0.00 0.00 0.00 98 1007.7
20260509105021 50 132 0.0 0.0 0.00 0.00 0.00 98 1007.6
20260509104517 50 131 0.0 0.0 0.00 0.00 0.00 98 1007.4
20260509104014 50 131 0.0 0.0 0.00 0.00 0.00 98 1007.6
20260509103512 50 144 0.0 0.0 0.00 0.00 0.00 98 1007.6
20260509103010 51 135 0.0 0.0 0.00 0.00 0.00 98 1007.5
20260509102507 50 163 0.0 0.0 0.00 0.00 0.00 98 1007.6
20260509102004 51 163 0.0 0.0 0.00 0.00 0.00 98 1007.4
20260509101500 51 162 0.0 0.0 0.00 0.00 0.00 98 1007.6
20260509100957 50 163 0.0 0.0 0.00 0.00 0.00 98 1007.5
20260509100454 51 163 0.0 0.0 0.00 0.00 0.00 98 1007.7
20260509095951 51 164 0.0 0.0 0.00 0.00 0.00 98 1007.7
20260509095448 51 164 0.0 0.0 0.00 0.00 0.00 98 1007.8
20260509094945 52 164 0.0 0.0 0.00 0.00 0.00 98 1007.8
20260509094441 52 164 0.0 0.0 0.00 0.00 0.00 98 1007.8
20260509093939 52 162 0.0 0.0 0.00 0.00 0.00 98 1007.8
20260509093436 51 161 0.0 0.0 0.00 0.00 0.00 98 1007.9
20260509092934 51 153 0.0 0.0 0.00 0.00 0.00 98 1007.8
20260509092432 51 152 0.0 0.0 0.00 0.00 0.00 98 1007.6
20260509091931 51 152 0.0 0.0 0.00 0.00 0.00 98 1007.6
20260509091427 51 152 0.0 0.0 0.00 0.00 0.00 98 1007.7
20260509090924 51 152 0.0 0.0 0.00 0.00 0.00 98 1007.6
20260509090421 51 152 0.0 0.0 0.00 0.00 0.00 98 1007.6
20260509085919 52 152 0.0 0.0 0.00 0.00 0.00 98 1007.5
20260509085416 52 152 0.0 0.0 0.00 0.00 0.00 98 1007.7
20260509084911 52 168 0.0 0.0 0.00 0.00 0.00 99 1007.4
20260509084409 52 163 0.0 0.0 0.00 0.00 0.00 98 1007.5
20260509083906 52 157 0.0 0.0 0.00 0.00 0.00 98 1007.4
20260509083403 51 164 0.0 0.0 0.00 0.00 0.00 98 1007.6
20260509082900 51 165 0.0 0.0 0.00 0.00 0.00 98 1007.5
20260509082357 51 138 0.0 0.0 0.00 0.00 0.00 98 1007.2
20260509081854 51 139 0.0 0.0 0.00 0.00 0.00 98 1007.6
20260509081351 51 157 0.0 0.0 0.00 0.00 0.00 98 1007.5
20260509080849 51 156 0.0 1.0 0.00 0.00 0.00 98 1007.6
20260509080346 50 171 0.0 0.0 0.00 0.00 0.00 98 1007.2
20260509075845 51 170 0.0 0.0 0.00 0.00 0.00 97 1007.3
20260509075341 51 170 0.0 0.0 0.00 0.00 0.00 98 1007.5
20260509074838 51 170 0.0 0.0 0.00 0.00 0.00 98 1007.4
20260509074336 51 170 0.0 0.0 0.00 0.00 0.00 97 1007.6
20260509073832 51 170 0.0 0.0 0.00 0.00 0.00 98 1007.7
20260509073329 51 170 0.0 0.0 0.00 0.00 0.00 98 1007.6
20260509072825 51 170 0.0 0.0 0.00 0.00 0.00 98 1007.7
20260509072322 50 170 0.0 0.0 0.00 0.00 0.00 98 1007.7
20260509071819 50 170 0.0 0.0 0.00 0.00 0.00 98 1007.8
20260509071316 50 170 0.0 0.0 0.00 0.00 0.00 97 1007.8
20260509070813 50 170 0.0 0.0 0.00 0.00 0.00 97 1007.9
20260509070309 50 170 0.0 0.0 0.00 0.00 0.00 97 1008.0
20260509065805 50 166 0.0 0.0 0.00 0.00 0.00 97 1008.0
20260509065305 50 165 0.0 0.0 0.00 0.00 0.00 97 1008.0
20260509064758 50 173 0.0 0.0 0.00 0.00 0.00 97 1007.9
20260509064256 50 172 0.0 0.0 0.00 0.00 0.00 97 1007.8
20260509063753 50 169 0.0 0.0 0.00 0.00 0.00 97 1008.0
20260509063249 50 169 0.0 0.0 0.00 0.00 0.00 97 1008.1
20260509062747 50 170 0.0 0.0 0.00 0.00 0.00 97 1008.0
20260509062244 50 169 0.0 0.0 0.00 0.00 0.00 97 1008.3
20260509061740 50 168 0.0 0.0 0.00 0.00 0.00 97 1008.2
20260509061239 50 168 0.0 0.0 0.00 0.00 0.00 97 1008.1
20260509060735 50 169 0.0 0.0 0.00 0.00 0.00 97 1008.2
20260509060232 50 167 0.0 0.0 0.00 0.00 0.00 97 1008.2
20260509055727 50 182 0.0 0.0 0.00 0.00 0.00 97 1008.3
20260509055224 50 165 0.0 0.0 0.00 0.00 0.00 97 1008.1
20260509054720 50 165 0.0 0.0 0.00 0.00 0.00 97 1008.2
20260509054218 50 165 0.0 0.0 0.00 0.00 0.00 97 1008.4
20260509053716 50 165 0.0 0.0 0.00 0.00 0.00 97 1008.4
20260509053213 50 165 0.0 0.0 0.00 0.00 0.00 97 1008.4
20260509052711 50 165 0.0 0.0 0.00 0.00 0.00 97 1008.2
20260509052208 50 165 0.0 0.0 0.00 0.00 0.00 97 1008.2
20260509051705 50 165 0.0 0.0 0.00 0.00 0.00 97 1008.2
20260509051203 50 164 0.0 0.0 0.00 0.00 0.00 96 1008.4
20260509050700 50 164 0.0 0.0 0.00 0.00 0.00 96 1008.3
20260509050156 51 164 0.0 0.0 0.00 0.00 0.00 96 1008.4
20260509045654 51 164 0.0 0.0 0.00 0.01 0.01 96 1008.5
20260509045150 51 164 0.0 0.0 0.00 0.01 0.01 96 1008.5
20260509044648 51 164 0.0 0.0 0.00 0.01 0.01 96 1008.4
20260509044145 51 164 0.0 0.0 0.00 0.01 0.01 96 1008.2
20260509043641 51 164 0.0 0.0 0.00 0.01 0.01 96 1008.4
20260509043137 51 164 0.0 0.0 0.00 0.01 0.01 96 1008.4
20260509042634 51 164 0.0 0.0 0.00 0.01 0.01 96 1008.5
20260509042129 52 164 0.0 0.0 0.00 0.01 0.01 96 1008.4
20260509041626 52 164 0.0 0.0 0.00 0.01 0.01 96 1008.3
20260509041124 52 164 0.0 0.0 0.00 0.01 0.01 96 1008.5
20260509040623 52 165 0.0 0.0 0.00 0.01 0.01 96 1008.7
20260509040119 52 160 0.0 0.0 0.00 0.01 0.01 96 1008.5
20260509035616 53 160 0.0 0.0 0.00 0.01 0.01 96 1008.4
20260509035112 53 160 0.0 0.0 0.00 0.01 0.01 96 1008.6
20260509034610 53 160 0.0 0.0 0.00 0.01 0.01 95 1008.7
20260509034107 53 160 0.0 0.0 0.00 0.01 0.01 95 1008.5
20260509033604 53 160 0.0 0.0 0.00 0.01 0.01 95 1008.4
20260509033101 53 160 0.0 0.0 0.00 0.01 0.01 95 1008.4
20260509032558 53 160 0.0 0.0 0.00 0.01 0.01 95 1008.6
20260509032055 53 160 0.0 0.0 0.00 0.01 0.01 95 1008.5
20260509031553 54 160 0.0 0.0 0.00 0.01 0.01 95 1008.5
20260509031050 54 160 0.0 0.0 0.00 0.01 0.01 95 1008.5
20260509030548 54 160 0.0 0.0 0.00 0.01 0.01 95 1008.3
20260509030044 54 160 0.0 0.0 0.00 0.01 0.01 95 1008.3
20260509025541 54 160 0.0 0.0 0.00 0.01 0.01 94 1008.3
20260509025037 55 160 0.0 0.0 0.00 0.01 0.01 94 1008.3
20260509024533 55 160 0.0 0.0 0.00 0.01 0.01 94 1008.2
20260509024029 55 160 0.0 0.0 0.00 0.01 0.01 94 1008.2
20260509023527 55 160 0.0 0.0 0.00 0.01 0.01 94 1008.2
20260509023023 55 160 0.0 0.0 0.00 0.01 0.01 94 1008.1
20260509022520 55 161 0.0 0.0 0.00 0.01 0.01 93 1007.8
20260509022018 56 160 0.0 0.0 0.00 0.01 0.01 93 1008.1
20260509021514 56 160 0.0 0.0 0.00 0.01 0.01 93 1008.0
20260509021011 56 160 0.0 0.0 0.00 0.01 0.01 93 1008.0
20260509020509 56 160 0.0 0.0 0.00 0.01 0.01 92 1007.9
20260509020006 57 160 0.0 0.0 0.00 0.01 0.01 92 1007.9
20260509015505 57 160 0.0 0.0 0.00 0.01 0.01 92 1007.7
20260509015002 57 160 0.0 0.0 0.00 0.01 0.01 91 1007.6
20260509014458 57 168 0.0 0.0 0.00 0.01 0.01 91 1007.7
20260509013954 58 168 0.0 0.0 0.00 0.01 0.01 90 1007.5
20260509013452 58 168 0.0 0.0 0.00 0.01 0.01 90 1007.5
20260509012947 58 168 0.0 0.0 0.00 0.01 0.01 90 1007.6
20260509012444 59 166 0.0 0.0 0.00 0.01 0.01 89 1007.5
20260509011941 59 166 0.0 0.0 0.00 0.01 0.01 88 1007.7
20260509011439 59 166 0.0 0.0 0.00 0.01 0.01 88 1007.2
20260509010936 60 188 0.0 0.0 0.00 0.01 0.01 87 1007.2
20260509010434 61 189 1.0 1.0 0.00 0.01 0.01 85 1006.7
20260509005930 61 189 0.0 0.0 0.00 0.01 0.01 84 1007.1
20260509005429 62 189 1.0 2.0 0.00 0.01 0.01 82 1006.9
20260509004928 62 188 1.0 1.0 0.00 0.01 0.01 81 1006.9
20260509004425 62 180 1.0 1.0 0.00 0.01 0.01 81 1006.6
20260509003924 62 169 0.0 0.0 0.00 0.01 0.01 80 1006.8
20260509003421 62 168 0.0 0.0 0.00 0.01 0.01 80 1006.4
20260509002917 63 198 2.0 2.0 0.00 0.01 0.01 79 1006.3
20260509002416 63 193 2.0 2.0 0.00 0.01 0.01 78 1006.5
20260509001912 63 178 1.0 1.0 0.00 0.01 0.01 78 1006.7
20260509001408 64 146 0.0 0.0 0.00 0.01 0.01 77 1006.9
20260509000906 64 166 0.0 0.0 0.00 0.01 0.01 77 1006.9
20260509000404 64 167 0.0 0.0 0.00 0.01 0.01 77 1006.8
20260508235859 64 133 0.0 0.0 0.00 0.01 0.01 77 1006.8
20260508235357 63 128 0.0 0.0 0.00 0.01 0.01 78 1006.9
20260508234854 63 111 1.0 2.0 0.00 0.01 0.01 77 1006.9
20260508234350 63 124 0.0 1.0 0.00 0.01 0.01 78 1006.7
20260508233849 63 118 1.0 1.0 0.00 0.01 0.01 78 1006.5
20260508233348 63 128 0.0 0.0 0.00 0.01 0.01 78 1006.7
20260508232844 64 114 0.0 0.0 0.00 0.01 0.01 77 1006.7
20260508232340 63 129 0.0 0.0 0.00 0.01 0.01 77 1006.6
20260508231839 63 205 2.0 3.0 0.00 0.01 0.01 77 1006.2
20260508231335 63 215 4.0 5.0 0.00 0.01 0.01 76 1006.0
20260508230832 63 163 3.0 5.0 0.00 0.01 0.01 77 1006.2
20260508230328 63 192 1.0 2.0 0.00 0.01 0.01 79 1006.2
20260508225826 63 109 0.0 0.0 0.00 0.01 0.01 79 1006.3
20260508225322 62 158 1.0 1.0 0.00 0.01 0.01 82 1006.2
20260508224821 61 183 3.0 3.0 0.00 0.01 0.01 84 1006.1
20260508224318 61 135 0.0 0.0 0.05 0.01 0.01 82 1006.4
20260508223815 61 132 0.0 0.0 0.05 0.01 0.01 80 1006.9
20260508223312 62 90 1.0 1.0 0.00 0.00 0.00 79 1007.1
20260508222810 62 140 0.0 0.0 0.00 0.00 0.00 81 1007.2
20260508222307 62 136 0.0 0.0 0.00 0.00 0.00 81 1007.4
20260508221803 62 126 1.0 1.0 0.00 0.00 0.00 80 1007.1
20260508221259 62 116 0.0 0.0 0.00 0.00 0.00 81 1007.2
20260508220755 62 38 3.0 5.0 0.00 0.00 0.00 80 1007.4
20260508220252 62 126 0.0 1.0 0.00 0.00 0.00 80 1007.3
20260508215748 62 124 0.0 1.0 0.00 0.00 0.00 79 1007.4
20260508215245 63 106 1.0 2.0 0.00 0.00 0.00 79 1007.5
20260508214742 63 129 1.0 1.0 0.00 0.00 0.00 78 1007.8
20260508214240 63 120 1.0 1.0 0.00 0.00 0.00 78 1007.8
20260508213736 63 117 1.0 1.0 0.00 0.00 0.00 75 1008.2
20260508213232 64 107 0.0 1.0 0.00 0.00 0.00 74 1008.0
20260508212729 64 133 0.0 1.0 0.00 0.00 0.00 72 1007.8
20260508212226 65 95 1.0 1.0 0.00 0.00 0.00 69 1007.9
20260508211721 66 72 1.0 2.0 0.00 0.00 0.00 67 1008.4
20260508211217 66 128 1.0 1.0 0.00 0.00 0.00 65 1008.2
20260508210715 67 7 1.0 1.0 0.00 0.00 0.00 64 1008.0
20260508210212 67 130 0.0 1.0 0.00 0.00 0.00 65 1007.8
20260508205709 68 122 1.0 1.0 0.00 0.00 0.00 64 1007.9
20260508205205 68 113 1.0 1.0 0.00 0.00 0.00 64 1007.6
20260508204701 68 163 0.0 0.0 0.00 0.00 0.00 62 1007.8
20260508204157 68 164 0.0 1.0 0.00 0.00 0.00 62 1008.2
20260508203653 68 203 1.0 1.0 0.00 0.00 0.00 63 1008.1
20260508203150 68 174 1.0 1.0 0.00 0.00 0.00 63 1008.3
20260508202646 68 172 0.0 1.0 0.00 0.00 0.00 64 1008.4
20260508202144 67 169 0.0 0.0 0.00 0.00 0.00 64 1007.8
20260508201640 67 167 0.0 0.0 0.00 0.00 0.00 63 1007.8
20260508201137 67 129 0.0 0.0 0.00 0.00 0.00 64 1007.8
20260508200633 67 160 1.0 1.0 0.00 0.00 0.00 64 1007.7
20260508200129 68 116 0.0 0.0 0.00 0.00 0.00 64 1007.7
20260508195627 68 144 0.0 1.0 0.00 0.00 0.00 64 1008.1
20260508195123 68 21 2.0 2.0 0.00 0.00 0.00 62 1008.4
20260508194619 68 158 1.0 1.0 0.00 0.00 0.00 63 1008.4
20260508194117 68 147 0.0 0.0 0.00 0.00 0.00 63 1008.4
20260508193614 68 190 1.0 1.0 0.00 0.00 0.00 62 1008.1
20260508193110 68 162 1.0 2.0 0.00 0.00 0.00 62 1008.2
20260508192607 68 183 1.0 1.0 0.00 0.00 0.00 63 1007.5
20260508192104 67 165 0.0 1.0 0.00 0.00 0.00 62 1007.7
20260508191601 68 141 0.0 0.0 0.00 0.00 0.00 64 1007.8
20260508191057 68 173 0.0 1.0 0.00 0.00 0.00 61 1007.9
20260508190554 68 136 0.0 0.0 0.00 0.00 0.00 61 1008.5
20260508190051 68 151 0.0 0.0 0.00 0.00 0.00 62 1008.3
20260508185548 68 164 0.0 1.0 0.00 0.00 0.00 60 1008.3
20260508185046 67 158 2.0 2.0 0.00 0.00 0.00 62 1008.5
20260508184543 67 189 3.0 3.0 0.00 0.00 0.00 61 1008.3